Location: Shenandoah County Park
(38.9356°N, 78.4524°W)
Time: 15:06:29
(UTC-04:00)

A-11 Canister half - Pass Details

Date: 10 December 2023
Orbit: 1524 x 1684 km, 47.3° (Epoch: 02 October)

Event Time Altitude Azimuth Distance (km) Brightness Sun altitude
Rises 01:53:15 0° 296° (WNW) 4,896 - -62.2°
Reaches altitude 10° 01:56:59 10° 286° (WNW) 3,885 - -61.6°
Maximum altitude 02:04:53 28° 232° (SW) 2,659 - -60.2°
Drops below altitude 10° 02:12:37 10° 178° (S) 3,768 - -58.8°
Sets 02:16:13 0° 167° (SSE) 4,726 - -58.1°
